NUVIEW ALPHA

Last updated on Sun Dec 14 2025 00:02:54 GMT+0000 (Coordinated Universal Time)

1 62455U 24252B 25347.18724821 -.00000202 00000+0 00000+0 0 9994 2 62455 0.0607 44.1512 0001982 264.8419 117.4490 1.00269853 1953
UTC large
Height (km)
Speed (km/s)
/
Latitude / Longitude
Inclination (degrees)
Orbital Period (minutes)
Azimuth
Elevation
Range (km)
Doppler Factor

Next 0 passes for location: London (51.5072 / 0.1276)

Sorry there are no passes over London.